Hourly Weather Staroe Kuznecovo

Today, 8 August, Saturday

Time Temperature Precipitation Wind Pressure Humidity
00:00 +15°C° 0 mm 1 mps 751 mmHg 93%
01:00 +15°C° 0 mm 1 mps 751 mmHg 93%
02:00 +14°C° 0 mm 1 mps 751 mmHg 93%
03:00 +14°C° 0 mm 1 mps 751 mmHg 94%
04:00 +15°C° 0 mm 1 mps 751 mmHg 94%
05:00 +15°C° 0 mm 1 mps 751 mmHg 94%
06:00 +16°C° 0 mm 1 mps 751 mmHg 88%
07:00 +19°C° 0 mm 1 mps 751 mmHg 82%
08:00 +20°C° 0 mm 2 mps 751 mmHg 77%
09:00 +21°C° 0 mm 2 mps 751 mmHg 72%
10:00 +23°C° 0 mm 2 mps 751 mmHg 68%
11:00 +24°C° 0 mm 2 mps 750 mmHg 64%
12:00 +24°C° 0.1 mm 2 mps 750 mmHg 64%
13:00 +25°C° 0.1 mm 2 mps 750 mmHg 65%
14:00 +25°C° 0.1 mm 2 mps 749 mmHg 65%
15:00 +24°C° 0.2 mm 2 mps 749 mmHg 70%
16:00 +24°C° 0.2 mm 2 mps 748 mmHg 74%
17:00 +23°C° 0.2 mm 2 mps 748 mmHg 79%
18:00 +21°C° 0.1 mm 2 mps 748 mmHg 83%
19:00 +20°C° 0.1 mm 2 mps 748 mmHg 87%
20:00 +18°C° 0.1 mm 2 mps 748 mmHg 91%
21:00 +18°C° 0 mm 2 mps 748 mmHg 92%
22:00 +18°C° 0 mm 1 mps 748 mmHg 93%
23:00 +18°C° 0 mm 1 mps 748 mmHg 94%

Tomorrow, 9 August, Sunday

Time Temperature Precipitation Wind Pressure Humidity
00:00 +16°C° 0 mm 1 mps 748 mmHg 94%
01:00 +16°C° 0 mm 2 mps 748 mmHg 95%
02:00 +16°C° 0 mm 2 mps 747 mmHg 95%
03:00 +16°C° 0 mm 2 mps 747 mmHg 95%
04:00 +16°C° 0 mm 2 mps 747 mmHg 95%
05:00 +16°C° 0 mm 2 mps 747 mmHg 95%
06:00 +17°C° 0.1 mm 2 mps 747 mmHg 92%
07:00 +19°C° 0.1 mm 2 mps 747 mmHg 88%
08:00 +20°C° 0.1 mm 2 mps 747 mmHg 84%
09:00 +21°C° 0.6 mm 2 mps 747 mmHg 83%
10:00 +23°C° 0.6 mm 2 mps 747 mmHg 81%
11:00 +23°C° 0.6 mm 2 mps 746 mmHg 79%
12:00 +24°C° 0.4 mm 2 mps 746 mmHg 76%
13:00 +25°C° 0.4 mm 3 mps 746 mmHg 72%
14:00 +25°C° 0.4 mm 3 mps 746 mmHg 68%
15:00 +25°C° 0.4 mm 3 mps 745 mmHg 72%
16:00 +24°C° 0.4 mm 3 mps 745 mmHg 76%
17:00 +24°C° 0.4 mm 2 mps 745 mmHg 80%
18:00 +23°C° 0 mm 2 mps 745 mmHg 84%
19:00 +20°C° 0 mm 2 mps 745 mmHg 88%
20:00 +18°C° 0 mm 2 mps 745 mmHg 92%
21:00 +18°C° 0 mm 2 mps 745 mmHg 93%
22:00 +18°C° 0 mm 1 mps 745 mmHg 94%
23:00 +18°C° 0 mm 1 mps 745 mmHg 95%

Day after tomorrow, 10 August, Monday

Time Temperature Precipitation Wind Pressure Humidity
00:00 +16°C° 0 mm 1 mps 745 mmHg 95%
01:00 +16°C° 0 mm 1 mps 745 mmHg 95%
02:00 +15°C° 0 mm 1 mps 745 mmHg 95%
03:00 +15°C° 0 mm 1 mps 745 mmHg 95%
04:00 +15°C° 0 mm 1 mps 745 mmHg 95%
05:00 +15°C° 0 mm 1 mps 745 mmHg 95%
06:00 +18°C° 0 mm 1 mps 745 mmHg 90%
07:00 +20°C° 0 mm 1 mps 745 mmHg 85%
08:00 +22°C° 0 mm 1 mps 745 mmHg 81%
09:00 +23°C° 0.2 mm 1 mps 745 mmHg 75%
10:00 +24°C° 0.2 mm 1 mps 745 mmHg 69%
11:00 +26°C° 0.2 mm 1 mps 745 mmHg 64%
12:00 +26°C° 0.7 mm 2 mps 744 mmHg 63%
13:00 +26°C° 0.7 mm 2 mps 744 mmHg 63%
14:00 +26°C° 0.7 mm 2 mps 744 mmHg 63%
15:00 +26°C° 0.6 mm 2 mps 743 mmHg 68%
16:00 +25°C° 0.6 mm 2 mps 743 mmHg 72%
17:00 +25°C° 0.6 mm 2 mps 743 mmHg 77%
18:00 +23°C° 0.3 mm 2 mps 743 mmHg 81%
19:00 +20°C° 0.3 mm 2 mps 743 mmHg 86%
20:00 +19°C° 0.3 mm 2 mps 743 mmHg 91%
21:00 +18°C° 0 mm 2 mps 743 mmHg 93%
22:00 +17°C° 0 mm 2 mps 743 mmHg 94%
23:00 +17°C° 0 mm 2 mps 743 mmHg 95%

11 August, Tuesday

Time Temperature Precipitation Wind Pressure Humidity
00:00 +16°C° 0 mm 2 mps 743 mmHg 95%
01:00 +15°C° 0 mm 2 mps 743 mmHg 95%
02:00 +14°C° 0 mm 2 mps 743 mmHg 95%
03:00 +14°C° 0 mm 2 mps 743 mmHg 95%
04:00 +13°C° 0 mm 2 mps 743 mmHg 95%
05:00 +12°C° 0 mm 2 mps 743 mmHg 95%
06:00 +14°C° 0 mm 2 mps 743 mmHg 91%
07:00 +15°C° 0 mm 2 mps 743 mmHg 87%
08:00 +16°C° 0 mm 3 mps 744 mmHg 83%
09:00 +17°C° 0 mm 3 mps 744 mmHg 77%
10:00 +18°C° 0 mm 3 mps 744 mmHg 71%
11:00 +19°C° 0 mm 4 mps 744 mmHg 64%
12:00 +19°C° 0 mm 4 mps 744 mmHg 66%
13:00 +18°C° 0 mm 4 mps 744 mmHg 68%
14:00 +16°C° 0 mm 5 mps 743 mmHg 70%
15:00 +17°C° 0 mm 4 mps 744 mmHg 72%
16:00 +17°C° 0 mm 4 mps 744 mmHg 73%
17:00 +16°C° 0 mm 3 mps 744 mmHg 74%
18:00 +14°C° 0 mm 3 mps 744 mmHg 79%
19:00 +13°C° 0 mm 3 mps 744 mmHg 84%
20:00 +12°C° 0 mm 3 mps 744 mmHg 89%
21:00 +11°C° 0 mm 3 mps 744 mmHg 90%
22:00 +11°C° 0 mm 3 mps 744 mmHg 91%
23:00 +10°C° 0 mm 3 mps 744 mmHg 92%

12 August, Wednesday

Time Temperature Precipitation Wind Pressure Humidity
00:00 +10°C° 0 mm 3 mps 744 mmHg 91%
01:00 +10°C° 0 mm 3 mps 744 mmHg 91%
02:00 +10°C° 0 mm 3 mps 744 mmHg 90%
03:00 +11°C° 0 mm 3 mps 744 mmHg 88%
04:00 +11°C° 0 mm 3 mps 744 mmHg 86%
05:00 +11°C° 0 mm 3 mps 744 mmHg 85%
06:00 +12°C° 0 mm 3 mps 744 mmHg 84%
07:00 +12°C° 0 mm 3 mps 744 mmHg 83%
08:00 +12°C° 0 mm 4 mps 744 mmHg 83%
09:00 +13°C° 0.1 mm 4 mps 744 mmHg 81%
10:00 +13°C° 0.1 mm 4 mps 744 mmHg 80%
11:00 +14°C° 0.1 mm 4 mps 744 mmHg 78%
12:00 +14°C° 0.1 mm 4 mps 744 mmHg 77%
13:00 +14°C° 0.1 mm 3 mps 744 mmHg 76%
14:00 +16°C° 0.1 mm 3 mps 744 mmHg 75%
15:00 +14°C° 0.1 mm 3 mps 744 mmHg 75%
16:00 +14°C° 0.1 mm 3 mps 745 mmHg 74%
17:00 +14°C° 0.1 mm 3 mps 745 mmHg 73%
18:00 +13°C° 0 mm 3 mps 745 mmHg 76%
19:00 +12°C° 0 mm 2 mps 745 mmHg 78%
20:00 +10°C° 0 mm 2 mps 745 mmHg 81%
21:00 +9°C° 0 mm 2 mps 745 mmHg 82%
22:00 +8°C° 0 mm 2 mps 745 mmHg 82%
23:00 +8°C° 0 mm 2 mps 745 mmHg 83%

13 August, Thursday

Time Temperature Precipitation Wind Pressure Humidity
00:00 +7°C° 0 mm 2 mps 745 mmHg 84%
01:00 +7°C° 0 mm 2 mps 745 mmHg 85%
02:00 +7°C° 0 mm 2 mps 746 mmHg 85%
03:00 +7°C° 0 mm 2 mps 746 mmHg 88%
04:00 +6°C° 0 mm 2 mps 746 mmHg 92%
05:00 +6°C° 0 mm 2 mps 746 mmHg 95%
06:00 +8°C° 0 mm 2 mps 746 mmHg 87%
07:00 +10°C° 0 mm 2 mps 746 mmHg 79%
08:00 +12°C° 0 mm 3 mps 746 mmHg 71%
09:00 +14°C° 0 mm 3 mps 746 mmHg 66%
10:00 +16°C° 0 mm 3 mps 746 mmHg 62%
11:00 +17°C° 0 mm 3 mps 746 mmHg 57%
12:00 +17°C° 0.1 mm 3 mps 746 mmHg 59%
13:00 +17°C° 0.1 mm 3 mps 746 mmHg 60%
14:00 +17°C° 0.1 mm 2 mps 746 mmHg 62%
15:00 +17°C° 0 mm 2 mps 746 mmHg 64%
16:00 +17°C° 0 mm 2 mps 746 mmHg 66%
17:00 +17°C° 0 mm 2 mps 746 mmHg 67%
18:00 +15°C° 0 mm 2 mps 746 mmHg 72%
19:00 +14°C° 0 mm 2 mps 746 mmHg 77%
20:00 +12°C° 0 mm 1 mps 746 mmHg 82%
21:00 +11°C° 0 mm 1 mps 746 mmHg 84%
22:00 +10°C° 0 mm 1 mps 747 mmHg 87%
23:00 +10°C° 0 mm 1 mps 747 mmHg 90%
Show more